Flag for Switzerland Weather past 2 weeks in Zürich, Zurich, Switzerland

Now
34 °F

Chilly.


Feels Like: 25 °F
Forecast: 36 / 40 °F
Wind: 13 mph from Southwest

Location: Zurich Town / Ville.

Current Time: Jan 28, 2015 at 7:47:20 PM

Latest Report: Jan 28, 2015 at 6:00 PM


Visibility: N/A

Pressure: 29.96 "Hg

Humidity: 73%

Dew point: 26 °F

Location of ZürichLocation

Historic Weather in Zürich — Graph

°F

Zürich temperature yesterday

Maximum temperature yesterday: 36 °F (at 2:00 PM)
Minimum temperature yesterday: 31 °F (at 12:00 AM)
Average temperature yesterday: 33 °F

Past Weeks' High & Low Weather Summary

 TemperatureHumidityPressure
High50 °F (Jan 14, 2:00 AM)100% (Jan 17, 8:00 AM)30.47 "Hg (Jan 17, 8:00 AM)
Low26 °F (Jan 26, 7:00 AM)39% (Jan 13, 6:00 PM)29.70 "Hg (Jan 16, 4:00 PM)
Average34 °F86%30.07 "Hg
* Reported Jan 13 6:00 PM — Jan 28 6:00 PM, Zürich, Weather by CustomWeather, © 2014

Note: Actual official high and low records may vary slightly from our data, if they occured in-between our weather recording intervals... More about our weather records

Advertising

Zürich weather history for previous 24 hours

 ConditionsComfort  
Time TempWeatherWind HumidityBarometerVisibility
6:00 PM
Jan 28
34 °FChilly.13 mph73%29.96 "HgN/A
5:00 PM34 °FChilly.9 mph70%29.97 "HgN/A
4:00 PM35 °FChilly.8 mph67%29.98 "HgN/A
3:00 PM35 °FChilly.10 mph67%30.04 "HgN/A
2:00 PM35 °FChilly.10 mph66%30.08 "HgN/A
1:00 PM35 °FOvercast.8 mph67%30.12 "HgN/A
12:00 PM34 °FChilly.8 mph73%30.16 "HgN/A
11:00 AM33 °FChilly.7 mph79%30.19 "HgN/A
10:00 AM31 °FChilly.5 mph89%30.21 "HgN/A
9:00 AM29 °FChilly.3 mph93%30.23 "HgN/A
8:00 AM29 °FChilly.1 mph95%30.24 "HgN/A
7:00 AM29 °FChilly.2 mph92%30.24 "HgN/A
6:00 AM29 °FChilly.2 mph92%30.24 "HgN/A
5:00 AM30 °FChilly.1 mph89%30.25 "HgN/A
4:00 AM31 °FChilly.5 mph86%30.26 "HgN/A
3:00 AM32 °FChilly.3 mph86%30.29 "HgN/A
2:00 AM32 °FChilly.6 mph84%30.29 "HgN/A
1:00 AM33 °FChilly.7 mph85%30.29 "HgN/A
12:00 AM32 °FChilly.5 mph87%30.29 "HgN/A
11:00 PM
Jan 27
32 °FChilly.3 mph87%30.30 "HgN/A
10:00 PM33 °FChilly.3 mph86%30.30 "HgN/A
9:00 PM33 °FChilly.6 mph87%30.29 "HgN/A
8:00 PM33 °FChilly.3 mph85%30.29 "HgN/A
7:00 PM34 °FOvercast.5 mph81%30.29 "HgN/A
Weather by CustomWeather, © 2014

See weather overviewHow to use our weather pages